Location: Unspecified
(49.2170°N, 0.0000°E)
Time: 14:32:27
(UTC+00:00)

Tiros 1 despin weight - Pass Details

Date: 24 January 2021
Orbit: 593 x 642 km, 48.2° (Epoch: 06 March)

Event Time Altitude Azimuth Distance (km) Brightness Sun altitude
Rises 16:53:41 0° 266° (W) 2,873 ? -2.3°
Reaches altitude 10° 16:56:00 10° 265° (W) 1,961 ? -2.6°
Maximum altitude 17:00:30 80° 179° (S) 617 ? -3.3°
Drops below altitude 10° 17:04:56 10° 93° (E) 1,935 ? -3.9°
Enters shadow 17:06:44 - 93° (E) 2,645 ? -4.2°
Sets 17:07:13 0° 93° (E) 2,833 - -4.2°
